Tracking 27405 objects as of 1-Jun-2023
HD Live streaming from Space Station
objects crossing your sky now

FENGYUN 1C DEB

Track FENGYUN 1C DEB now!
10-day predictions


NORAD ID: 31880
Int'l Code: 1999-025CKF
Perigee: 850.4 km
Apogee: 1,045.4 km
Inclination: 100.0 °
Period: 103.9 minutes
Semi major axis: 7318 km
RCS: 0.0108 m2 (small)
Launch date: May 10, 1999
Source: People's Republic of China (PRC)
Launch site: Taiyaun Space Center, China (TSC)

Note: This is SATELLITE DEBRIS
Your satellite tracking list
Your tracking list is empty




NASA's NSSDC Master Catalog

Two Line Element Set (TLE):
1 31880U 99025CKF 23148.97314710  .00000725  00000-0  62186-3 0  9995
2 31880  99.9667 236.1759 0133235  67.8289 293.6942 13.86538574500952
Source of the keplerian elements: AFSPC